Location: CNYAC Observatory
(43.2150°N, 74.9500°W)
Time: 17:37:35
(UTC-04:00)

Meteor 1-22 Rocket - Pass Details

Date: 27 May 2018
Orbit: 788 x 940 km, 81.2° (Epoch: 20 August)

Event Time Altitude Azimuth Distance (km) Brightness Sun altitude
Rises 00:16:55 0° 337° (NNW) 3,330 8.6 -24.8°
Reaches altitude 10° 00:19:45 10° 323° (NW) 2,379 7.4 -24.9°
Maximum altitude 00:23:51 23° 273° (W) 1,635 5.8 -25.1°
Enters shadow 00:25:13 21° 251° (WSW) 1,728 5.7 -25.1°
